Regional Weather Roundup
Issued by NWS Grand Forks, ND

Current Version | Previous Version | Text Only | Print | Product List | Glossary On
Versions: 1 2 3 4 5 6 7 8 9 10 11 12 13 14 15 16 17 18 19 20 21 22 23 24 25 26 27 28 29 30 31 32 33 34 35 36 37 38 39 40 41 42 43 44 45 46 47 48 49 50
000
ASUS43 KFGF 201231
RWRFGF
PRAIRIE TO PINES  WEATHER ROUNDUP
NATIONAL WEATHER SERVICE EASTERN NORTH DAKOTA/GRAND FORKS ND
600 AM CST SAT DEC 20 2014

 **SATELLITE DATA USED TO AUGMENT SKY COVER AT AUTOMATED STATIONS**
 *****  WEATHER ACROSS EASTERN NORTH DAKOTA  *****

CITY           SKY/WX    TMP DP  RH WIND       PRES   REMARKS
GRAND FORKS    CLOUDY    28  27  96 S6        29.99F FOG     WCI  22
6HR MIN TEMP:  28; 6HR MAX TEMP:  30;

GRAND FRKS AFB CLOUDY    27  27 100 S6        29.99S WCI  21
GRAND FRKS NWS   N/A     28 N/A N/A SW6         N/A  WCI  22
DEVILS LAKE    CLOUDY    21  16  79 CALM      29.94R
6HR MIN TEMP:  21; 6HR MAX TEMP:  25;

FARGO          CLOUDY    30  27  88 S10       30.02S WCI  21
WAHPETON ARPT  CLOUDY    30  28  93 S7        30.03F WCI  23
$$

 ***** WEATHER ACROSS CENTRAL AND WESTERN NORTH DAKOTA  *****

CITY           SKY/WX    TMP DP  RH WIND       PRES   REMARKS
BISMARCK       FOG       16  15  96 E6        29.94S VSB 3/4 WCI   7
6HR MIN TEMP:  15; 6HR MAX TEMP:  16;

MINOT          FOG       22  20  92 SE8       29.90S VSB 1/4 WCI  12
6HR MIN TEMP:  21; 6HR MAX TEMP:  23; 6HR PCP: TRACE;

JAMESTOWN      FOG       20  16  84 S6        29.96S VSB 1/2 WCI  12
6HR MIN TEMP:  20; 6HR MAX TEMP:  23;

MINOT AFB      FRZ DRZL  21  21 100 S6        29.89F VSB 1/2 WCI  14
GARRISON         N/A     20  18  92 E7        29.89F WCI  11
WILLISTON      CLOUDY    16  14  92 CALM      29.84F
6HR MIN TEMP:  10; 6HR MAX TEMP:  17;

DICKINSON      CLOUDY    29  24  82 S6        29.82F WCI  23
6HR MIN TEMP:  20; 6HR MAX TEMP:  30;

HETTINGER      CLOUDY    28  23  81 CALM      29.86F
6HR MIN TEMP:  15; 6HR MAX TEMP:  29;

$$

 *****  OTHER AIRPORT OBSERVATIONS IN OUR AREA  *****

CITY           SKY/WX    TMP DP  RH WIND       PRES   REMARKS
WALHALLA         N/A     27  27 100 CALM      29.98S
GRAFTON AIRPOR NOT AVBL
VALLEY CITY AR FOG       23  23 100 S6        29.98S VSB 1/4 WCI  16
CANDO          CLOUDY    23  23 100 S3        29.95S FOG
CAVALIER APRT  CLOUDY    27  27 100 SE3       29.98F
GWINNER        CLOUDY    30  30 100 MISG      30.01S
ROLLA          FOG       23  23 100 S5        29.93R VSB 1   WCI  17
 ***** THE ABOVE OBSERVATIONS ARE NON NWS ARE NOT QUALITY
       CONTROLLED AND MAY MIS-REPORT RAIN FOR SNOW...
$$

  *****  WEATHER ACROSS NORTHERN MINNESOTA  *****

CITY           SKY/WX    TMP DP  RH WIND       PRES   REMARKS
FLAG ISLAND    CLOUDY    27  25  93 S8        30.02R FOG     WCI  18
WARROAD        CLOUDY    27  23  86 SE5       30.02S FOG     WCI  21
ROSEAU         CLOUDY    28  25  86 SE3       30.01S HAZE
HALLOCK        CLOUDY    28  27  93 CALM      29.99S FOG
THF RVR FALLS  CLOUDY    28  28 100 SW8       30.00S WCI  20
6HR MIN TEMP:  27; 6HR MAX TEMP:  30;

BAUDETTE       CLOUDY    27  25  92 S3        30.02R FOG
6HR MIN TEMP:  25; 6HR MAX TEMP:  27; 6HR PCP: TRACE;

WASKISH        CLOUDY    28  27  93 CALM      30.03S FOG
CROOKSTON      CLOUDY    28  28 100 S8        30.01F FOG     WCI  20
STEPHEN NDAWN    N/A     28  28 100 S3          N/A
GREENBUSH NDAW   N/A     28  28 100 S1          N/A
$$
  *****  WEATHER ACROSS CENTRAL AND WEST MINNESOTA  *****

CITY           SKY/WX    TMP DP  RH WIND       PRES   REMARKS
FOSSTON        CLOUDY    27  27 100 S9        30.01S FOG     WCI  17
BEMIDJI          N/A     29  28  98 S8        30.01S FOG     WCI  21
PARK RAPIDS    CLOUDY    30  28  92 S9        30.03S FOG     WCI  22
6HR MIN TEMP:  29; 6HR MAX TEMP:  30; 6HR PCP: TRACE;

ELBOW LAKE     CLOUDY    28  28  96 S13       30.04S WCI  18
6HR MIN TEMP:  28; 6HR MAX TEMP:  30;

WADENA         CLOUDY    28  27  93 S8        30.04S FOG     WCI  20
DETROIT LAKES  CLOUDY    30  30 100 S10G16    30.02S FOG     WCI  21
MOORHEAD       CLOUDY    30  30 100 S6        30.03S WCI  24
FERGUS FALLS   CLOUDY    28  28 100 S9        30.06F FOG     WCI  20
MORRIS MN      CLOUDY    30  28  93 S12       30.04F FOG     WCI  21
STAPLES        CLOUDY    28  28 100 S8        30.06R FOG     WCI  20
$$
  *****  WEATHER ELSEWHERE ACROSS MINNESOTA  *****

CITY           SKY/WX    TMP DP  RH WIND       PRES   REMARKS
DULUTH         LGT SNOW  26  23  88 S9        30.11S FOG     WCI  17
6HR MIN TEMP:  25; 6HR MAX TEMP:  26; 6HR PCP: TRACE;

INTRNTL FALLS  LGT SNOW  26  24  92 S5        30.04S FOG     WCI  20
6HR MIN TEMP:  24; 6HR MAX TEMP:  26; 6HR PCP:  0.03;

ELY            LGT SNOW  25  23  93 S5        30.10S WCI  19
CLOQUET        CLOUDY    27  25  93 CALM      30.12R FOG
WHEATON        CLOUDY    28  27  93 S8        30.06S WCI  20
BRAINERD       CLOUDY    29  29 100 S8        30.08R FOG     WCI  21
6HR MIN TEMP:  27; 6HR MAX TEMP:  29; 6HR PCP: TRACE;

HIBBING        LGT SNOW  26  23  88 SE6       30.08S FOG     WCI  19
6HR MIN TEMP:  26; 6HR MAX TEMP:  26; 6HR PCP:  0.01;

ALEXANDRIA     CLOUDY    29  27  92 S10       30.06S FOG     WCI  20
6HR MIN TEMP:  29; 6HR MAX TEMP:  30;

SAINT CLOUD    CLOUDY    32  29  88 S9        30.11R FOG     WCI  24
6HR MIN TEMP:  32; 6HR MAX TEMP:  32;

MINNEAPOLIS    CLOUDY    29  25  85 S9        30.15S FOG     WCI  20
6HR MIN TEMP:  29; 6HR MAX TEMP:  29;

$$

  *****  WEATHER ACROSS SOUTH DAKOTA  *****

CITY           SKY/WX    TMP DP  RH WIND       PRES   REMARKS
SIOUX FALLS    CLOUDY    31  29  92 S8        30.05S FOG     WCI  23
6HR MIN TEMP:  31; 6HR MAX TEMP:  31;

BROOKINGS      NOT AVBL
WATERTOWN      CLOUDY    28  26  92 S12       30.00S FOG     WCI  18
6HR MIN TEMP:  28; 6HR MAX TEMP:  29;

HURON          FOG       25  25 100 S9        30.02S VSB 1/2 WCI  15
6HR MIN TEMP:  25; 6HR MAX TEMP:  28;

SISSETON         N/A     30  28  92 SW8       30.01F WCI  22
ABERDEEN       FOG       27  25  92 S8        30.01R VSB 3/4 WCI  19
6HR MIN TEMP:  27; 6HR MAX TEMP:  29;

MITCHELL       FOG       27  27 100 S9        30.05R VSB 1/2 WCI  18
PIERRE         HAZE      20  15  81 E6        29.95S VSB<1/4 WCI  12
6HR MIN TEMP:  12; 6HR MAX TEMP:  20;

MOBRIDGE       PTCLDY    19  16  88 SE8       29.91S WCI   9
RAPID CITY     MOCLDY    33  22  63 NW6       29.88S
6HR MIN TEMP:  21; 6HR MAX TEMP:  33;

$$

  *****  SOME WEATHER IN NEARBY STATES *****

CITY           SKY/WX    TMP DP  RH WIND       PRES   REMARKS
GLASGOW MT     MOCLDY    25  22  88 SE6       29.81S WCI  18
6HR MIN TEMP:  24; 6HR MAX TEMP:  30;

GREAT FALLS MT CLEAR     32  21  64 SW15      29.85S WCI  22
6HR MIN TEMP:  31; 6HR MAX TEMP:  39;

CHEYENNE WY    MOCLDY    35  17  47 W22G33    29.94S WCI  23
6HR MIN TEMP:  26; 6HR MAX TEMP:  36;

SCOTTSBLUFF NE CLEAR     11   8  88 CALM      29.96F
6HR MIN TEMP:  11; 6HR MAX TEMP:  17;

OMAHA NE       FRZ DRZL  32  31  96 S12       30.11F FOG     WCI  23
6HR MIN TEMP:  31; 6HR MAX TEMP:  32; 6HR PCP: TRACE;

DES MOINES IA  CLOUDY    32  27  81 SW6       30.17S
6HR MIN TEMP:  32; 6HR MAX TEMP:  33; 6HR PCP: TRACE;

DAVENPORT IA   CLOUDY    28  23  81 SE6       30.24F WCI  22
6HR MIN TEMP:  28; 6HR MAX TEMP:  29;

CHICAGO IL     CLOUDY    29  23  78 CALM      30.27R
6HR MIN TEMP:  28; 6HR MAX TEMP:  30;

EAU CLAIRE WI  CLOUDY    28  21  75 S7        30.19F WCI  21
6HR MIN TEMP:  28; 6HR MAX TEMP:  28;

LA CROSSE WI   CLOUDY    30  24  78 SE5       30.22S
6HR MIN TEMP:  30; 6HR MAX TEMP:  30;

$$

  *****  SOME NATIONAL WEATHER *****

CITY           SKY/WX    TMP DP  RH WIND       PRES   REMARKS
LA GUARDIA NY  CLOUDY    31  21  66 N9        30.27R WCI  23
6HR MIN TEMP:  31; 6HR MAX TEMP:  33;

RALEIGH NC     CLOUDY    35  25  66 NE7       30.29R
6HR MIN TEMP:  35; 6HR MAX TEMP:  38;

ATLANTA GA     LGT RAIN  45  41  87 N5        30.16R
6HR MIN TEMP:  42; 6HR MAX TEMP:  44; 6HR PCP:  0.17;

NEW ORLEANS LA CLOUDY    50  47  89 NE16      30.10R
6HR MIN TEMP:  49; 6HR MAX TEMP:  52; 6HR PCP:  0.04;

OKLAHOMA CITY  CLOUDY    40  35  83 S3        30.21R
6HR MIN TEMP:  38; 6HR MAX TEMP:  41;

ALBUQUERQUE NM PTCLDY    28  23  81 SW3       30.17F
6HR MIN TEMP:  28; 6HR MAX TEMP:  35;

SALT LAKE CITY CLOUDY    39  34  82 SW6       30.12F
6HR MIN TEMP:  38; 6HR MAX TEMP:  41; 6HR PCP: TRACE;

LOS ANGELES CA PTCLDY    51  48  89 CALM      30.15F



USA.gov is the U.S. government's official web portal to all federal, state and local government web resources and services.